sat.trackr.live / text

‹ back to catalog

STARLINK-37953

NORAD 69694 · 2026-145T

PAYLOAD ACTIVE UNKNOWN

§ Identity

Operator
Country
US
Launch date
2026-06-25
Launch site
AFWTR
Launch vehicle
Mass (kg)
RCS (m²)

Purposes: comms

External: N2YO · Heavens-Above · Gunter

§ Orbital elements

Epoch: 2026-09-19T09:08:34.441152Z

Period
93.91 min
Inclination
97.2852°
Eccentricity
0.0001754
Mean motion
15.33438210 rev/d
Perigee alt
464.4 km
Apogee alt
466.8 km
Semi-major
6,843.7 km
B*
1.4460e-4
RAAN
109.0924°
Arg perigee
90.2064°
Mean anomaly
269.9380°
Rev number
1,337

§ Raw data

STARLINK-379531 69694U 26145T   26262.38095418  .00004595  00000+0  14460-3 0  99982 69694  97.2852 109.0924 0001754  90.2064 269.9380 15.33438210 13373

JSON: /api/v1/satellites/69694 · /tle

For live sub-satellite position, see the globe view (requires WebGL).

§ Visibility from observer

Set your observer location to see the next 7 days of passes ≥ 10°. The values pass through the URL so the page stays shareable.

No JS? Fill the form by hand. The geolocation button needs JavaScript.